Torna al catalogo

PRAETORIAN SDA_515

AttivoMilitarePO
NORAD 100073·PAYLOAD·🇺🇸 United States

Lanciato Jul 16, 2026 da Vandenberg Space Force Base

Loading…

Prossimi Passaggi (prossime 24 ore)

TLE

AggiornatoSource: Space-Track

Epoca: Sep 14, 2026, 17:51 UTC

1 A0073U 26163Q   26257.74405162  .00000195  00000-0  15846-3 0  9991
2 A0073  81.4788 255.1833 0016972  55.3031 304.9723 13.86018737  8300

Traccia PRAETORIAN SDA_515 in tempo reale con AllMySat

Download on the App Store